Find Starlink 31880

NORAD ID: 59661 Int'l Des: 2024-084 Owner: SPXS Country: US Constellation: starlink operational
LEOCIRCULAR

当前视图

正在加载3D地球...

About Starlink 31880

Starlink 31880 (NORAD 59661) is a starlink constellation satellite (v2 mini) launched May 6, 2024 by SPXS of US. It operates in LEO, CIRCULAR orbit with a mass of 730.00 kg.

关于 Starlink 31880

正在加载描述...

即将过境

Passes for default location (London). Set your location on the main map for personalized predictions.

高度历史

Loading altitude history...

两行轨道根数

1 59661U 24084H 26174.01937277 .00000731 00000-0 36105-4 0 9991
2 59661 43.0027 163.3511 0001115 275.2640 84.8085 15.27573211120526
Epoch: Jun 23, 2026 • Age: 31 hours

当前状态

高度 482.8 km
速度 7.63 km/s
星下点 -1.12°S, 124.63°E
发射日期 May 6, 2024
运行时间 2.1 years
类型 internet

技术详情

分类 Payload
质量 730.00 kg
干质量 700.00 kg
总质量 730.00 kg
长度 0.30 m
直径 4.10 m
跨度 29.00 m
形状 Box + pan
制造商 SPXS
平台类型 Starlink V2M
阶段状态 In Orbit
所有者/国家 SPXS/US

Most Searched